FW3021 Weather Reports


time (UTC)temp
C
wind
direction
speed
KPH
gust
KPH
rain 1hr
cm
rain 24hr
cm
rain mn
cm
humidity
%
barometer
mb
20260503010016 6 113 1.6 4.8 0.00 0.00 0.00 44 1008.3
20260503005016 6 90 3.2 8.0 0.00 0.00 0.00 44 1008.4
20260503004036 6 113 3.2 9.7 0.00 0.00 0.00 43 1008.5
20260503003036 6 90 1.6 4.8 0.00 0.00 0.00 45 1008.6
20260503002016 6 90 3.2 9.7 0.00 0.00 0.00 43 1008.6
20260503001016 6 135 3.2 6.4 0.00 0.00 0.00 46 1008.8
20260503000016 6 135 3.2 11.3 0.00 0.00 0.00 47 1008.8
20260502235015 6 135 3.2 6.4 0.00 0.00 0.00 46 1008.9
20260502234036 6 68 4.8 9.7 0.00 0.00 0.00 49 1008.9
20260502233015 6 113 3.2 6.4 0.00 0.00 0.00 50 1009.1
20260502232015 5 135 1.6 6.4 0.00 0.00 0.00 50 1009.2
20260502231015 5 113 3.2 9.7 0.00 0.00 0.00 53 1009.4
20260502230016 5 0.0 3.2 0.00 0.00 0.00 57 1009.3
20260502225016 6 113 1.6 6.4 0.00 0.00 0.00 52 1009.4
20260502224015 6 113 3.2 6.4 0.00 0.00 0.00 53 1009.6
20260502223036 6 90 3.2 4.8 0.00 0.00 0.00 50 1009.7
20260502222015 6 90 1.6 4.8 0.00 0.00 0.00 49 1009.8
20260502221015 6 113 3.2 6.4 0.00 0.00 0.00 53 1009.9
20260502220015 6 113 4.8 11.3 0.00 0.00 0.00 53 1010.0
20260502215015 6 113 4.8 6.4 0.00 0.00 0.00 53 1010.1
20260502214035 6 135 4.8 8.0 0.00 0.00 0.00 52 1010.1
20260502213058 5 113 3.2 6.4 0.00 0.00 0.00 54 1010.4
20260502212017 5 113 4.8 8.0 0.00 0.00 0.00 56 1010.6
20260502211017 5 135 4.8 8.0 0.00 0.00 0.00 58 1010.5
20260502210017 4 135 6.4 12.9 0.00 0.00 0.00 60 1010.7
20260502205037 4 113 6.4 12.9 0.00 0.00 0.00 61 1010.8
20260502204017 4 113 8.0 12.9 0.00 0.00 0.00 61 1011.0
20260502203017 4 135 6.4 14.5 0.00 0.00 0.00 62 1011.1
20260502202017 3 113 8.0 12.9 0.00 0.00 0.00 64 1011.4
20260502201017 3 113 9.7 14.5 0.00 0.00 0.00 64 1011.5
20260502200017 4 113 6.4 11.3 0.00 0.00 0.00 64 1011.7
20260502195037 3 113 6.4 11.3 0.00 0.00 0.00 65 1011.8
20260502194018 3 135 4.8 8.0 0.00 0.00 0.00 64 1012.0
20260502193017 3 135 4.8 8.0 0.00 0.00 0.00 64 1012.2
20260502192017 3 135 4.8 6.4 0.00 0.00 0.00 64 1012.2
20260502191017 3 158 4.8 8.0 0.00 0.00 0.00 65 1012.3
20260502190017 3 158 4.8 8.0 0.00 0.00 0.00 64 1012.5
20260502185017 3 180 4.8 8.0 0.00 0.00 0.00 64 1012.6
20260502184017 3 180 4.8 4.8 0.00 0.00 0.00 63 1012.8
20260502183017 3 203 4.8 6.4 0.00 0.00 0.00 65 1013.0
20260502182017 3 203 4.8 6.4 0.00 0.00 0.00 65 1013.1
20260502181037 3 203 4.8 6.4 0.00 0.00 0.00 64 1013.2
20260502164037 2 203 4.8 6.4 0.00 0.00 0.00 63 1014.7
20260502163017 2 225 6.4 8.0 0.00 0.00 0.00 63 1014.8
20260502162017 2 203 6.4 8.0 0.00 0.00 0.00 63 1014.8
20260502161057 2 225 4.8 6.4 0.00 0.00 0.00 61 1015.0
20260502152017 2 203 6.4 8.0 0.00 0.00 0.00 62 1015.5
20260502151017 2 225 6.4 6.4 0.00 0.00 0.00 62 1015.6
20260502123016 0 0.0 0.0 0.00 0.00 0.00 63 1016.6
20260502122016 0 0.0 3.2 0.00 0.00 0.00 61 1016.5
20260502121036 0 0.0 0.0 0.00 0.00 0.00 66 1016.4
20260502115016 -1 0 3.2 3.2 0.00 0.00 0.00 67 1016.5
20260502114016 -2 0 3.2 3.2 0.00 0.00 0.00 67 1016.5
20260502113036 -3 0 3.2 4.8 0.00 0.00 0.00 68 1016.4
20260502112016 -3 0 3.2 4.8 0.00 0.00 0.00 68 1016.4
20260502111016 -3 0 3.2 4.8 0.00 0.00 0.00 69 1016.4
20260502110016 -3 0 4.8 6.4 0.00 0.00 0.00 69 1016.4
20260502105016 -3 0 4.8 6.4 0.00 0.00 0.00 68 1016.5
20260502104036 -3 0 4.8 6.4 0.00 0.00 0.00 68 1016.5
20260502103016 -3 0 4.8 6.4 0.00 0.00 0.00 67 1016.5
20260502102036 -3 0 4.8 6.4 0.00 0.00 0.00 66 1016.5
20260502101016 -3 0 4.8 6.4 0.00 0.00 0.00 66 1016.6
20260502091036 -3 0 4.8 6.4 0.00 0.00 0.00 67 1016.7
20260502071015 -2 338 4.8 6.4 0.00 0.00 0.00 65 1017.1
20260502070015 -2 338 3.2 4.8 0.00 0.00 0.00 64 1017.2
20260502065016 -2 338 1.6 3.2 0.00 0.00 0.00 65 1017.2
20260502064015 -2 338 3.2 4.8 0.00 0.00 0.00 66 1017.3
20260502063016 -2 338 4.8 4.8 0.00 0.00 0.00 65 1017.3
20260502062015 -1 338 3.2 4.8 0.00 0.00 0.00 64 1017.5
20260502061015 -1 338 3.2 4.8 0.00 0.00 0.00 64 1017.4
20260502060016 -2 338 4.8 6.4 0.00 0.00 0.00 65 1017.4
20260502055017 -1 338 3.2 4.8 0.00 0.00 0.00 65 1017.3
20260502054017 -2 338 4.8 6.4 0.00 0.00 0.00 65 1017.2
20260502053017 -1 338 4.8 6.4 0.00 0.00 0.00 65 1017.3
20260502052017 -1 338 4.8 6.4 0.00 0.00 0.00 65 1017.3
20260502051017 -1 338 4.8 4.8 0.00 0.00 0.00 65 1017.4
20260502050017 -2 338 3.2 6.4 0.00 0.00 0.00 66 1017.4
20260502045016 -2 315 4.8 6.4 0.00 0.00 0.00 64 1017.5
20260502044016 -1 270 4.8 9.7 0.00 0.00 0.00 64 1017.5
20260502043015 -1 225 4.8 4.8 0.00 0.00 0.00 64 1017.5
20260502042016 -1 225 4.8 6.4 0.00 0.00 0.00 62 1017.5
20260502041015 -1 225 3.2 4.8 0.00 0.00 0.00 63 1017.5
20260502040016 -1 225 3.2 4.8 0.00 0.00 0.00 63 1017.5
20260502035017 -1 225 3.2 4.8 0.00 0.00 0.00 62 1017.4
20260502034017 -1 225 1.6 4.8 0.00 0.00 0.00 61 1017.4
20260502033017 0 225 3.2 6.4 0.00 0.00 0.00 60 1017.5
20260502032017 0 0.0 1.6 0.00 0.00 0.00 59 1017.8
20260502031018 0 0.0 3.2 0.00 0.00 0.00 60 1017.7
20260502030037 -1 225 3.2 4.8 0.00 0.00 0.00 61 1017.6
20260502025017 -1 225 4.8 4.8 0.00 0.00 0.00 60 1017.6
20260502024017 0 225 3.2 4.8 0.00 0.00 0.00 60 1017.6
20260502023017 0 225 3.2 4.8 0.00 0.00 0.00 60 1017.6
20260502022017 0 225 3.2 4.8 0.00 0.00 0.00 59 1017.6
20260502021018 0 225 3.2 4.8 0.00 0.00 0.00 58 1017.6
20260502020017 0 225 3.2 4.8 0.00 0.00 0.00 56 1017.7
20260502015017 1 225 3.2 4.8 0.00 0.00 0.00 54 1017.5
20260502014017 1 225 1.6 3.2 0.00 0.00 0.00 53 1017.5
20260502013017 1 225 1.6 3.2 0.00 0.00 0.00 53 1017.5
20260502012017 2 225 3.2 4.8 0.00 0.00 0.00 50 1017.5
20260502011017 2 225 1.6 3.2 0.00 0.00 0.00 48 1017.5